[[{"header":{"parameterUnit":"m.s-1","parameterCategory":1,"la1":30.2991,"la2":30.254,"lo1":-89.0895,"lo2":-89.0444,"dy":0.0017,"dx":0.0017,"nx":28,"ny":28,"refTime":"2023-10-25T03:00:00:Z","depth":0,"parameterNumber":2,"parameterNumberName":"U-component_of_WINDS"},"data":[0,0,0,0,0,0,0,0,0,0,0,0,0,0,0,0,0,0,0,0,0,0,0,0,0,0,0,0,0,0,0,0,0,0,0,0,0,0,0,0,0,0,0,0,0,0,0,0,0,0,0,0,0,0,0,0,0,0,-6.9304,-6.9306,0,-6.9476,-6.9478,-6.948,-6.9465,-6.9462,-6.9459,-6.9457,-6.9632,-6.9639,-6.9646,0,0,0,0,0,0,0,0,0,0,0,0,0,-6.8959,-6.8966,-6.9304,-6.9306,-6.9308,-6.9476,-6.9478,-6.9481,-6.9465,-6.9462,-6.9459,-6.9456,-6.963,-6.9638,-6.9647,0,0,0,0,0,0,0,0,0,0,0,0,0,-6.9118,-6.8968,-6.9303,-6.932,-6.9324,-6.9475,-6.9478,-6.9481,-6.9466,-6.9462,-6.9458,-6.9454,-6.9627,-6.9638,-6.9648,-6.9794,0,0,-6.9681,-6.9686,0,0,0,0,0,0,0,0,-6.9109,-6.9131,-6.9316,-6.932,-6.9323,-6.9445,-6.9421,-6.9586,-6.9467,-6.9412,-6.9457,-6.9452,-6.9573,-6.9588,-6.9629,-6.9802,-6.9809,-6.9682,-6.9688,-6.9693,-6.9696,0,0,0,0,0,0,0,-6.9098,-6.9123,-6.9372,-6.9318,-6.9323,-6.9319,-6.9337,-6.9452,-6.9513,-6.9416,-6.9416,-6.9436,-6.9574,-6.9619,-6.9633,-6.9812,-6.9682,-6.9691,-6.9698,-6.9702,-7.0112,-7.0117,0,0,0,0,0,0,-6.9083,-6.9114,-6.9366,-6.9377,-6.9204,-6.9329,-6.9349,-6.941,-6.9511,-6.9523,-6.9439,-6.9435,-6.9602,-6.9621,-6.9639,-6.9815,-6.9693,-6.9703,-6.9709,-7.0108,-7.0113,-7.0118,0,0,0,0,0,0,-6.9076,-6.9106,-6.9359,-6.9246,-6.9278,-6.9339,-6.9407,-6.9415,-6.946,-6.9529,-6.9539,-6.9474,-6.96,-6.9624,-6.9755,-6.9821,-6.9708,-6.9717,-7.0103,-7.0109,-7.0116,-7.0169,0,0,0,0,0,0,-6.9066,-6.9103,-6.9159,-6.9247,-6.9284,-6.9473,-6.9411,-6.9422,-6.9478,-6.9474,-6.9564,-6.9575,-6.9599,-6.9739,-6.9766,-6.9834,-6.9726,-7.0097,-7.0106,-7.0114,-7.0161,-7.0176,-7.0189,0,0,0,0,0,-6.9054,-6.9167,-6.9162,-6.9193,-6.9355,-6.9477,-6.9498,-6.9523,-6.9484,-6.954,-6.9585,-6.9572,-6.981,-6.9753,-6.9783,-6.9855,-7.0093,-7.0103,-7.0113,-7.0155,-7.0173,-7.0189,0,0,0,0,0,0,-6.9085,-6.9179,-6.9174,-6.932,-6.939,-6.9474,-6.9546,-6.9542,-6.9625,-6.9617,-6.9645,-6.9666,-6.9798,-6.984,-6.9774,-7.0001,-6.9946,-6.9963,-6.9968,-6.9986,-7.0,-6.9986,-6.9735,0,0,0,0,0,-6.9109,-6.9201,-6.9278,-6.9398,-6.9434,-6.9484,-6.9538,-6.9552,-6.9626,-6.9656,-6.971,-6.9782,-6.9873,-6.9932,-7.002,-7.0168,-7.0187,-7.0233,-7.0246,-7.0258,-7.0271,-7.0352,-7.0372,-7.0151,-7.0151,-7.0151,0,0,-6.9159,-6.9222,-6.9278,-6.9406,-6.9462,-6.9556,-6.9509,-6.961,-6.9679,-6.9671,-6.9797,-6.984,-6.9923,-7.0063,-7.0127,-7.0102,-7.0337,-7.0271,-7.0279,-7.0286,-7.0364,-7.0385,-7.0404,-7.0158,-7.0157,-7.0156,0,0,-6.9297,-6.9355,-6.9461,-6.9519,-6.9605,-6.9638,-6.9663,-6.9748,-6.9776,-6.9904,-6.9899,-6.9983,-7.0139,-7.0198,-7.0248,-7.041,-7.0401,-7.0438,-7.051,-7.0589,-7.0606,-7.0622,-7.0678,-7.0698,-7.0452,-7.0452,-7.0452,0,-6.9348,-6.9489,-6.9516,-6.9618,-6.9674,-6.9672,-6.9779,-6.9834,-6.9944,-6.9983,-6.9953,-7.015,-7.0205,-7.0359,-7.0398,-7.044,-7.0469,-7.0427,-7.0602,-7.0618,-7.0632,-7.0686,-7.0708,-7.0456,-7.0455,-7.0455,-7.0454,0,-6.9547,-6.9645,-6.972,-6.9827,-6.9892,-6.9997,-7.0039,-7.0102,-7.011,-7.0146,-7.0276,-7.0343,-7.0444,-7.0482,-7.0492,-7.0637,-7.0619,-7.0596,-7.0541,-7.0657,-7.0708,-7.0729,-7.0461,-7.046,-7.0459,-7.0458,0,0,-6.9707,-6.9829,-6.9856,-6.9904,-7.0,-7.0076,-7.018,-7.0279,-7.0332,-7.0409,-7.0496,-7.0629,-7.0609,-7.0666,-7.0682,-7.0751,-7.0874,-7.072,-7.0722,-7.0744,-7.1037,-7.1052,-7.1076,-7.087,-7.0874,-7.0877,-7.103,0,-6.9854,-7.0038,-7.0066,-7.0228,-7.0318,-7.0318,-7.0409,-7.0477,-7.0514,-7.0596,-7.0637,-7.073,-7.0696,-7.0731,-7.0799,-7.0844,-7.0933,-7.0834,-7.095,-7.0954,-7.0927,-7.1103,-7.1119,-7.126,-7.105,-7.1054,-7.1056,0,-7.0048,-7.0131,-7.0302,-7.0385,-7.0424,-7.0505,-7.0598,-7.0677,-7.0755,-7.0777,-7.0841,-7.0849,-7.0957,-7.09,-7.1049,-7.0981,-7.1031,-7.106,-7.1066,-7.1076,-7.101,-7.1115,-7.1306,-7.1326,-7.1088,-7.1086,-7.1083,0,-7.0146,-7.03,-7.0422,-7.0464,-7.0565,-7.0621,-7.0666,-7.074,-7.0798,-7.088,-7.0917,-7.1011,-7.1061,-7.1133,-7.1166,-7.1122,-7.1312,-7.1258,-7.1332,-7.1332,-7.137,-7.1367,-7.1569,-7.1406,-7.1406,-7.1406,-7.1405,0,-7.0305,-7.0409,-7.0467,-7.0542,-7.0659,-7.069,-7.0805,-7.0848,-7.0914,-7.0997,-7.1004,-7.1081,-7.1121,-7.1205,-7.1232,-7.135,-7.1374,-7.1394,-7.1399,-7.1392,-7.1389,-7.1423,-7.1413,-7.1411,-7.141,-7.1409,-7.1408,0,-7.0433,-7.0476,-7.0609,-7.0694,-7.0718,-7.08,-7.0872,-7.0945,-7.0982,-7.1087,-7.1113,-7.1171,-7.127,-7.1311,-7.1433,-7.1451,-7.1586,-7.1585,-7.156,-7.1561,-7.1632,-7.1624,-7.1861,-7.1893,-7.1711,-7.1713,-7.1714,0,-7.053,-7.061,-7.0704,-7.076,-7.0807,-7.0897,-7.0956,-7.0991,-7.1052,-7.1147,-7.1208,-7.1308,-7.1388,-7.1547,-7.16,-7.1693,-7.1693,-7.177,-7.1707,-7.1697,-7.1692,-7.1685,-7.1693,-7.178,-7.1782,-7.1783,-7.1785,0,-7.0698,-7.0715,-7.0801,-7.0894,-7.0964,-7.1039,-7.1112,-7.1158,-7.1204,-7.1272,-7.1374,-7.1437,-7.1561,-7.1659,-7.1755,-7.1801,-7.1801,-7.1805,-7.1826,-7.1818,-7.1799,-7.1808,-7.1589,-7.1798,-7.1797,-7.1796,-7.1795,-7.1795,-7.0812,-7.0883,-7.096,-7.1055,-7.1114,-7.1182,-7.1254,-7.13,-7.1386,-7.1489,-7.1505,-7.1613,-7.1689,-7.1819,-7.1869,-7.1954,-7.1934,-7.1966,-7.1974,-7.198,-7.1984,-7.1788,-7.1972,-7.1972,-7.1971,-7.1971,-7.1971,0,-7.0978,-7.1028,-7.1115,-7.1217,-7.1292,-7.1286,-7.1367,-7.1429,-7.1524,-7.1595,-7.1675,-7.1792,-7.1887,-7.1948,-7.2044,-7.2101,-7.2103,-7.2125,-7.2119,-7.213,-7.1997,-7.1968,-7.2121,-7.2121,-7.2121,-7.2121,-7.2121,-7.2121,-7.1073,-7.1193,-7.122,-7.1368,-7.1418,-7.1523,-7.157,-7.1633,-7.169,-7.1819,-7.1899,-7.1938,-7.2006,-7.2107,-7.2194,-7.221,-7.2244,-7.2267,-7.2281,-7.2155,-7.2139,-7.2124,-7.2096,-7.2275,-7.2275,-7.2406,-7.2407,-7.2408]},{"header":{"parameterUnit":"m.s-1","parameterCategory":1,"la1":30.2991,"la2":30.254,"lo1":-89.0895,"lo2":-89.0444,"dy":0.0017,"dx":0.0017,"nx":28,"ny":28,"refTime":"2023-10-25T03:00:00:Z","depth":0,"parameterNumber":3,"parameterNumberName":"V-component_of_WINDS"},"data":[0,0,0,0,0,0,0,0,0,0,0,0,0,0,0,0,0,0,0,0,0,0,0,0,0,0,0,0,0,0,0,0,0,0,0,0,0,0,0,0,0,0,0,0,0,0,0,0,0,0,0,0,0,0,0,0,0,0,2.287,2.2871,0,2.2941,2.2942,2.2943,2.2972,2.2972,2.2972,2.2972,2.3041,2.3043,2.3045,0,0,0,0,0,0,0,0,0,0,0,0,0,2.2754,2.2756,2.287,2.2871,2.2872,2.2941,2.2942,2.2943,2.2972,2.2972,2.2972,2.2972,2.304,2.3042,2.3045,0,0,0,0,0,0,0,0,0,0,0,0,0,2.2813,2.2757,2.287,2.2895,2.2898,2.2941,2.2942,2.2943,2.2972,2.2972,2.2972,2.2972,2.3039,2.3042,2.3045,2.3067,0,0,2.3054,2.3055,0,0,0,0,0,0,0,0,2.2809,2.2817,2.289,2.2893,2.2896,2.2948,2.2926,2.2985,2.2972,2.2944,2.2972,2.2971,2.301,2.3015,2.3029,2.3071,2.3074,2.3054,2.3056,2.3057,2.3058,0,0,0,0,0,0,0,2.2805,2.2814,2.2898,2.2891,2.2895,2.2901,2.2909,2.2938,2.2977,2.2946,2.2948,2.2957,2.3011,2.3026,2.3031,2.3075,2.3054,2.3057,2.3059,2.306,2.3137,2.3137,0,0,0,0,0,0,2.2798,2.281,2.2896,2.29,2.2851,2.2903,2.2912,2.2931,2.2977,2.2983,2.2957,2.2958,2.3021,2.3027,2.3033,2.3062,2.3057,2.306,2.3062,2.3137,2.3137,2.3137,0,0,0,0,0,0,2.2795,2.2805,2.2893,2.2856,2.2867,2.2905,2.2926,2.2933,2.2947,2.2985,2.2991,2.2965,2.3021,2.3029,2.3059,2.3065,2.3062,2.3064,2.3136,2.3137,2.3137,2.312,0,0,0,0,0,0,2.2792,2.2804,2.2814,2.2856,2.2869,2.2919,2.2927,2.2934,2.2953,2.2955,2.2994,2.3,2.3021,2.3054,2.3062,2.3069,2.3066,2.3136,2.3136,2.3137,2.312,2.312,2.3119,0,0,0,0,0,2.2787,2.2806,2.2815,2.2825,2.2883,2.2919,2.2927,2.2952,2.2953,2.2963,2.2987,2.2999,2.3062,2.3057,2.3066,2.3074,2.3136,2.3136,2.3137,2.312,2.312,2.3119,0,0,0,0,0,0,2.2763,2.2812,2.2822,2.2855,2.2883,2.2924,2.2938,2.295,2.2977,2.2978,2.3006,2.3015,2.3042,2.3061,2.3054,2.3097,2.31,2.3102,2.3084,2.3084,2.3084,2.3079,2.3069,0,0,0,0,0,2.2762,2.2788,2.2829,2.2854,2.2867,2.29,2.2916,2.2933,2.2962,2.2974,2.3,2.3027,2.3052,2.3069,2.3095,2.3122,2.3131,2.3132,2.3131,2.3131,2.3133,2.3148,2.3149,2.3139,2.3139,2.3139,0,0,2.2759,2.2789,2.2804,2.285,2.2873,2.2899,2.291,2.2936,2.2955,2.2978,2.3008,2.3027,2.3059,2.3087,2.3101,2.3103,2.3137,2.3132,2.3131,2.3134,2.3148,2.3149,2.315,2.314,2.314,2.314,0,0,2.2768,2.2793,2.2817,2.284,2.2875,2.2896,2.2902,2.2941,2.2955,2.2986,2.3003,2.3024,2.3068,2.309,2.3107,2.3121,2.3133,2.3128,2.3126,2.314,2.3141,2.3142,2.3147,2.3148,2.3129,2.3129,2.3129,0,2.276,2.2801,2.2827,2.2853,2.2872,2.2894,2.2917,2.2937,2.2979,2.299,2.2992,2.3048,2.3071,2.3104,2.3107,2.312,2.3126,2.3125,2.3139,2.314,2.3141,2.3146,2.3148,2.3129,2.3129,2.3129,2.3129,0,2.2789,2.2816,2.2831,2.2871,2.2891,2.2915,2.2944,2.2961,2.2974,2.2995,2.3024,2.3052,2.3084,2.3092,2.3106,2.3127,2.3128,2.3134,2.3138,2.3141,2.3146,2.3148,2.3128,2.3128,2.3128,2.3128,0,0,2.2787,2.284,2.2845,2.2864,2.2903,2.2924,2.2947,2.2979,2.2993,2.3019,2.304,2.3075,2.3081,2.31,2.3116,2.3128,2.3137,2.3133,2.3134,2.3133,2.3161,2.3156,2.3158,2.3144,2.3144,2.3145,2.3158,0,2.2802,2.2848,2.2871,2.2906,2.293,2.295,2.297,2.2996,2.3014,2.3037,2.3056,2.3082,2.3087,2.3099,2.3111,2.3133,2.3143,2.3132,2.3162,2.3163,2.3155,2.3161,2.3157,2.3168,2.316,2.316,2.3161,0,2.2826,2.2853,2.2891,2.2926,2.2937,2.2956,2.2986,2.3007,2.3035,2.3047,2.3067,2.3083,2.3106,2.3107,2.3139,2.3132,2.3145,2.3157,2.3158,2.3162,2.3163,2.3166,2.3173,2.3175,2.3164,2.3164,2.3164,0,2.2821,2.2867,2.2896,2.291,2.2952,2.2964,2.2981,2.3009,2.3026,2.3051,2.3062,2.3089,2.3105,2.3124,2.3146,2.3144,2.3176,2.3178,2.3186,2.3185,2.3193,2.3193,2.3202,2.32,2.32,2.32,2.32,0,2.2836,2.2858,2.2894,2.2912,2.2936,2.2961,2.2984,2.3003,2.3027,2.3047,2.3065,2.3083,2.311,2.313,2.3147,2.3171,2.3177,2.3187,2.3191,2.3186,2.3185,2.3196,2.3197,2.32,2.32,2.32,2.32,0,2.2836,2.2861,2.2893,2.2929,2.2939,2.2956,2.2986,2.3002,2.3021,2.3046,2.3053,2.3081,2.3107,2.313,2.3163,2.3174,2.3198,2.3203,2.3189,2.3192,2.3199,2.3198,2.3217,2.322,2.3214,2.3214,2.3214,0,2.2845,2.2863,2.29,2.2916,2.2933,2.2957,2.2975,2.2998,2.3015,2.3047,2.3059,2.3086,2.3109,2.3148,2.3171,2.3196,2.3202,2.3206,2.3206,2.32,2.3202,2.3201,2.3203,2.3207,2.3207,2.3207,2.3207,0,2.2858,2.2869,2.2894,2.2922,2.2942,2.2966,2.299,2.3,2.3028,2.3046,2.3072,2.309,2.3123,2.3149,2.3176,2.3192,2.3204,2.3206,2.3209,2.3205,2.3197,2.3202,2.319,2.3206,2.3206,2.3206,2.3206,2.3206,2.2863,2.288,2.2908,2.2935,2.2955,2.2976,2.2993,2.3013,2.3036,2.3067,2.3078,2.3105,2.3129,2.3167,2.3183,2.3203,2.3205,2.321,2.3211,2.3212,2.3212,2.3192,2.3208,2.3208,2.3208,2.3208,2.3208,0,2.2878,2.2896,2.292,2.2953,2.2973,2.2982,2.3008,2.3024,2.3048,2.307,2.3092,2.3121,2.3146,2.3169,2.3195,2.3206,2.3212,2.3212,2.3212,2.3215,2.3208,2.3203,2.3207,2.3207,2.3207,2.3207,2.3207,2.3207,2.2888,2.2916,2.2929,2.2966,2.2984,2.3011,2.3025,2.3044,2.3062,2.3095,2.3115,2.313,2.3153,2.3179,2.3202,2.3208,2.3216,2.3215,2.3223,2.3216,2.3216,2.3216,2.3211,2.3217,2.3217,2.3228,2.3229,2.3229]}]]